User: anonymous   Login
Location: Newark
(32.9533°N, 113.4900°W)
Time: 02:01:08
(UTC+00:00)
Language:

N. Korean satellite - Orbit

View from above orbital plane
View from above orbital plane
View from above satellite
View from above satellite

Ground track
Ground track

The orbit data is extracted from the following two-line orbital elements,

1 39026U 12072A   19295.73239248  .00001468  00000-0  55140-4 0  9994
2 39026  97.2156 294.8437 0038312  15.8836 344.3596 15.28086766380843
Epoch (UTC): 22 October 2019 17:34:38
Eccentricity: 0.0038312
inclination: 97.2156°
perigee height: 455 km
apogee height: 508 km
right ascension of ascending node: 294.8437°
argument of perigee: 15.8836°
revolutions per day: 15.28086766
mean anomaly at epoch: 344.3596°
orbit number at epoch: 38084

The dashed part of the orbit path shows where the satellite is in the earth's shadow,  

DLR